[[{"header":{"parameterUnit":"m.s-1","parameterCategory":1,"la1":30.2991,"la2":30.254,"lo1":-89.0895,"lo2":-89.0444,"dy":0.0017,"dx":0.0017,"nx":28,"ny":28,"refTime":"2025-07-07T03:00:00:Z","depth":0,"parameterNumber":2,"parameterNumberName":"U-component_of_WINDS"},"data":[0,0,0,0,0,0,0,0,0,0,0,0,0,0,0,0,0,0,0,0,0,0,0,0,0,0,0,0,0,0,0,0,0,0,0,0,0,0,0,0,0,0,0,0,0,0,0,0,0,0,0,0,0,0,0,0,0,0,0.7024,0.7024,0,0.7092,0.7092,0.7093,0.7119,0.7119,0.7119,0.7119,0.7189,0.7191,0.7193,0,0,0,0,0,0,0,0,0,0,0,0,0,0.6915,0.6917,0.7024,0.7024,0.7025,0.7092,0.7092,0.7093,0.7119,0.7119,0.7119,0.7119,0.7188,0.719,0.7193,0,0,0,0,0,0,0,0,0,0,0,0,0,0.6971,0.6918,0.7023,0.7046,0.7049,0.7091,0.7093,0.7094,0.7119,0.7119,0.7119,0.7119,0.7187,0.719,0.7193,0.7218,0,0,0.7202,0.7204,0,0,0,0,0,0,0,0,0.6968,0.6975,0.7042,0.7045,0.7048,0.7097,0.708,0.7135,0.712,0.7093,0.7119,0.7118,0.7158,0.7164,0.7177,0.7221,0.7224,0.7203,0.7205,0.7206,0.7207,0,0,0,0,0,0,0,0.6964,0.6972,0.7051,0.7043,0.7047,0.7053,0.706,0.7091,0.7126,0.7095,0.7097,0.7105,0.716,0.7174,0.7179,0.7225,0.7203,0.7205,0.7207,0.7208,0.7292,0.7292,0,0,0,0,0,0,0.6956,0.6969,0.7048,0.7053,0.7006,0.7055,0.7063,0.7081,0.7126,0.7133,0.7105,0.7106,0.7169,0.7175,0.7181,0.7213,0.7206,0.7209,0.721,0.7291,0.7292,0.7292,0,0,0,0,0,0,0.6954,0.6963,0.7046,0.7011,0.7022,0.7057,0.7077,0.7083,0.7097,0.7134,0.714,0.7113,0.7169,0.7177,0.7208,0.7216,0.721,0.7213,0.7291,0.7292,0.7292,0.7276,0,0,0,0,0,0,0.6951,0.6962,0.6972,0.7011,0.7024,0.7072,0.7078,0.7084,0.7102,0.7104,0.7143,0.7149,0.7169,0.7204,0.7211,0.722,0.7215,0.729,0.7291,0.7292,0.7276,0.7276,0.7276,0,0,0,0,0,0.6947,0.6965,0.6972,0.6982,0.7037,0.7072,0.7079,0.7102,0.7103,0.7113,0.7136,0.7148,0.7213,0.7207,0.7216,0.7225,0.729,0.7291,0.7292,0.7276,0.7276,0.7276,0,0,0,0,0,0,0.6926,0.6971,0.6979,0.7011,0.7037,0.7076,0.709,0.7102,0.7129,0.7129,0.7156,0.7165,0.7194,0.7213,0.7204,0.7251,0.7253,0.7255,0.7237,0.7238,0.7237,0.7232,0.7218,0,0,0,0,0,0.6925,0.695,0.6987,0.7012,0.7024,0.7055,0.7071,0.7086,0.7115,0.7126,0.7152,0.7179,0.7206,0.7223,0.7249,0.7279,0.7287,0.7289,0.7289,0.7289,0.7291,0.7307,0.7308,0.7295,0.7295,0.7295,0,0,0.6924,0.6951,0.6965,0.7008,0.7031,0.7055,0.7064,0.709,0.7108,0.713,0.7161,0.718,0.7213,0.7243,0.7257,0.7259,0.7296,0.729,0.729,0.7292,0.7308,0.7309,0.731,0.7296,0.7296,0.7295,0,0,0.6934,0.6957,0.6979,0.7001,0.7035,0.7055,0.706,0.7097,0.7111,0.7142,0.7158,0.7181,0.7226,0.7248,0.7265,0.7282,0.7293,0.729,0.7289,0.7305,0.7306,0.7307,0.7312,0.7314,0.7292,0.7292,0.7292,0,0.6928,0.6965,0.6989,0.7014,0.7032,0.7053,0.7075,0.7095,0.7136,0.7148,0.7149,0.7206,0.7229,0.7264,0.7268,0.7282,0.7288,0.7286,0.7304,0.7305,0.7306,0.7312,0.7314,0.7291,0.7291,0.7291,0.7291,0,0.6956,0.6982,0.6996,0.7034,0.7054,0.7077,0.7104,0.7121,0.7135,0.7154,0.7185,0.7214,0.7246,0.7255,0.7269,0.7292,0.7292,0.7298,0.7301,0.7306,0.7312,0.7314,0.729,0.729,0.7291,0.7291,0,0,0.6955,0.7006,0.701,0.7027,0.7065,0.7086,0.711,0.7141,0.7155,0.7182,0.7202,0.724,0.7245,0.7265,0.7281,0.7294,0.7305,0.7299,0.73,0.7299,0.7332,0.7327,0.7329,0.7313,0.7313,0.7314,0.7329,0,0.697,0.7014,0.7035,0.707,0.7093,0.7113,0.7133,0.7159,0.7177,0.72,0.7221,0.7247,0.7252,0.7264,0.7278,0.7301,0.7312,0.73,0.7332,0.7333,0.7323,0.7332,0.7327,0.734,0.7331,0.7332,0.7332,0,0.6993,0.7019,0.7055,0.709,0.71,0.7119,0.7149,0.717,0.7199,0.7212,0.7233,0.7248,0.7274,0.7274,0.7309,0.7301,0.7315,0.7328,0.7329,0.7333,0.7333,0.7335,0.7344,0.7346,0.7336,0.7335,0.7335,0,0.6988,0.7032,0.7059,0.7074,0.7114,0.7127,0.7144,0.7173,0.719,0.7216,0.7227,0.7256,0.7272,0.7294,0.7317,0.7315,0.7349,0.7352,0.736,0.736,0.7367,0.7366,0.7378,0.7376,0.7376,0.7376,0.7376,0,0.7001,0.7023,0.7058,0.7074,0.7099,0.7123,0.7147,0.7166,0.7191,0.7211,0.723,0.7249,0.7278,0.73,0.7318,0.7344,0.7351,0.7362,0.7366,0.736,0.7359,0.737,0.737,0.7377,0.7377,0.7376,0.7376,0,0.7,0.7024,0.7055,0.7091,0.71,0.7117,0.7147,0.7164,0.7183,0.7209,0.7217,0.7247,0.7274,0.7299,0.7335,0.7347,0.7374,0.738,0.7364,0.7366,0.7373,0.7372,0.7393,0.7396,0.7392,0.7392,0.7392,0,0.7007,0.7024,0.7061,0.7076,0.7093,0.7117,0.7134,0.7159,0.7176,0.721,0.7223,0.7251,0.7275,0.7318,0.7343,0.7371,0.7377,0.7382,0.7381,0.7374,0.7377,0.7375,0.7377,0.7382,0.7382,0.7382,0.7382,0,0.7016,0.7027,0.7052,0.708,0.71,0.7124,0.7148,0.7159,0.7188,0.7206,0.7234,0.7253,0.729,0.7318,0.7348,0.7366,0.7379,0.7382,0.7385,0.7379,0.7369,0.7374,0.7363,0.7381,0.7381,0.7381,0.7381,0.7381,0.7019,0.7035,0.7063,0.7089,0.711,0.7132,0.7149,0.717,0.7194,0.7226,0.7239,0.7267,0.7295,0.7337,0.7354,0.7377,0.7379,0.7384,0.7385,0.7386,0.7385,0.7365,0.7382,0.7382,0.7382,0.7382,0.7383,0,0.7029,0.7048,0.7072,0.7105,0.7125,0.7135,0.7162,0.7179,0.7203,0.7228,0.7251,0.7283,0.731,0.7337,0.7365,0.7378,0.7384,0.7384,0.7384,0.7387,0.7381,0.7375,0.7378,0.7378,0.7378,0.7378,0.7378,0.7378,0.7037,0.7063,0.7077,0.7114,0.7133,0.7161,0.7175,0.7195,0.7215,0.725,0.7272,0.7289,0.7315,0.7345,0.737,0.7377,0.7387,0.7385,0.7394,0.7388,0.7388,0.7388,0.7383,0.7387,0.7387,0.7399,0.7399,0.7399]},{"header":{"parameterUnit":"m.s-1","parameterCategory":1,"la1":30.2991,"la2":30.254,"lo1":-89.0895,"lo2":-89.0444,"dy":0.0017,"dx":0.0017,"nx":28,"ny":28,"refTime":"2025-07-07T03:00:00:Z","depth":0,"parameterNumber":3,"parameterNumberName":"V-component_of_WINDS"},"data":[0,0,0,0,0,0,0,0,0,0,0,0,0,0,0,0,0,0,0,0,0,0,0,0,0,0,0,0,0,0,0,0,0,0,0,0,0,0,0,0,0,0,0,0,0,0,0,0,0,0,0,0,0,0,0,0,0,0,1.2956,1.2958,0,1.3095,1.3097,1.3098,1.3145,1.3144,1.3144,1.3143,1.3282,1.3286,1.329,0,0,0,0,0,0,0,0,0,0,0,0,0,1.2726,1.273,1.2956,1.2958,1.2959,1.3095,1.3097,1.3099,1.3145,1.3144,1.3144,1.3143,1.3281,1.3286,1.3291,0,0,0,0,0,0,0,0,0,0,0,0,0,1.2842,1.2732,1.2956,1.2999,1.3004,1.3095,1.3097,1.3099,1.3145,1.3144,1.3143,1.3143,1.3279,1.3285,1.3291,1.3348,0,0,1.3311,1.3313,0,0,0,0,0,0,0,0,1.2835,1.285,1.2991,1.2996,1.3002,1.3102,1.3067,1.3182,1.3145,1.3091,1.3143,1.3142,1.3222,1.3233,1.3261,1.3354,1.336,1.3311,1.3315,1.3318,1.332,0,0,0,0,0,0,0,1.2827,1.2844,1.3011,1.2993,1.3,1.301,1.3026,1.3089,1.316,1.3096,1.31,1.3116,1.3225,1.3255,1.3265,1.3362,1.3311,1.3317,1.3321,1.3323,1.3508,1.3509,0,0,0,0,0,0,1.2812,1.2837,1.3007,1.3015,1.2915,1.3015,1.3032,1.3071,1.3159,1.3172,1.3116,1.3118,1.3245,1.3257,1.327,1.3342,1.3318,1.3324,1.3327,1.3507,1.3509,1.351,0,0,0,0,0,0,1.2807,1.2827,1.3001,1.2927,1.295,1.302,1.3063,1.3074,1.3104,1.3175,1.3187,1.3134,1.3245,1.3261,1.3328,1.3348,1.3327,1.3332,1.3506,1.3508,1.3509,1.3487,0,0,0,0,0,0,1.28,1.2825,1.2848,1.2928,1.2954,1.3058,1.3064,1.3077,1.3115,1.3118,1.3195,1.3207,1.3245,1.3319,1.3335,1.3356,1.3337,1.3504,1.3507,1.3509,1.3486,1.3487,1.3489,0,0,0,0,0,1.2792,1.2835,1.2849,1.2869,1.2985,1.3059,1.3074,1.3119,1.3116,1.314,1.3185,1.3204,1.3343,1.3325,1.3344,1.3367,1.3503,1.3506,1.3508,1.3485,1.3487,1.3488,0,0,0,0,0,0,1.2754,1.2846,1.2863,1.2933,1.2988,1.3067,1.3098,1.3119,1.3175,1.3175,1.3227,1.3243,1.3307,1.3344,1.3322,1.3426,1.3424,1.343,1.34,1.3402,1.3404,1.3393,1.3343,0,0,0,0,0,1.2755,1.2809,1.2885,1.294,1.2967,1.3027,1.3061,1.3091,1.315,1.3173,1.3224,1.3279,1.3335,1.337,1.3426,1.3491,1.3509,1.3516,1.3518,1.3518,1.3523,1.3561,1.3565,1.3518,1.3518,1.3518,0,0,1.2755,1.2812,1.2843,1.2934,1.298,1.3034,1.3047,1.3103,1.3143,1.3181,1.3248,1.3287,1.3352,1.3419,1.345,1.3451,1.354,1.3522,1.3522,1.3526,1.3564,1.3568,1.3572,1.352,1.3519,1.3519,0,0,1.2783,1.2832,1.2883,1.2929,1.3,1.304,1.3051,1.3127,1.3155,1.3224,1.3253,1.3301,1.3396,1.3442,1.3477,1.3522,1.3542,1.3539,1.3545,1.3581,1.3585,1.3588,1.3604,1.361,1.3543,1.3543,1.3543,0,1.2775,1.2858,1.2906,1.2962,1.3001,1.3039,1.309,1.3132,1.3216,1.3242,1.3242,1.3363,1.3409,1.3487,1.3498,1.3525,1.354,1.353,1.358,1.3585,1.3588,1.3605,1.361,1.3542,1.3542,1.3542,1.3543,0,1.2844,1.2902,1.2934,1.3016,1.3059,1.3112,1.3167,1.3204,1.3229,1.3269,1.3338,1.3394,1.3462,1.3483,1.3508,1.3564,1.3562,1.3571,1.3569,1.3591,1.3607,1.3614,1.3541,1.3541,1.3542,1.3542,0,0,1.2853,1.2961,1.2972,1.301,1.309,1.3135,1.3189,1.3257,1.3288,1.3344,1.339,1.347,1.3479,1.3519,1.3549,1.358,1.3613,1.3585,1.3587,1.3588,1.3678,1.3672,1.3678,1.3626,1.3627,1.3628,1.3673,0,1.2892,1.2993,1.3037,1.3117,1.317,1.3207,1.3254,1.3308,1.3346,1.3396,1.3437,1.3493,1.35,1.3524,1.3557,1.3602,1.3631,1.3599,1.3669,1.3671,1.3652,1.3686,1.368,1.3719,1.3679,1.368,1.3681,0,1.2952,1.301,1.3095,1.3169,1.3193,1.3235,1.3301,1.3348,1.3409,1.3435,1.348,1.3509,1.3566,1.356,1.3639,1.3617,1.3647,1.3674,1.3676,1.3685,1.3677,1.3696,1.3733,1.3738,1.3691,1.369,1.369,0,1.295,1.3049,1.3114,1.3144,1.3232,1.3261,1.3299,1.3359,1.3397,1.3453,1.3478,1.354,1.3574,1.3621,1.3665,1.3657,1.374,1.3738,1.3762,1.3761,1.3778,1.3777,1.3821,1.3797,1.3797,1.3797,1.3797,0,1.2989,1.304,1.3114,1.3153,1.3211,1.3261,1.3316,1.3357,1.341,1.3457,1.3492,1.3535,1.3591,1.3641,1.3675,1.3736,1.375,1.3772,1.3781,1.3769,1.3766,1.379,1.3789,1.3799,1.3798,1.3798,1.3798,0,1.2997,1.3049,1.3121,1.3199,1.322,1.3259,1.3325,1.3364,1.3403,1.3462,1.3479,1.3541,1.3601,1.365,1.3729,1.3752,1.3815,1.3825,1.3795,1.38,1.3821,1.3818,1.3882,1.3893,1.3862,1.3862,1.3862,0,1.3019,1.3059,1.3141,1.3176,1.3214,1.3269,1.3308,1.3359,1.3398,1.347,1.35,1.3564,1.3617,1.3711,1.3763,1.3823,1.3834,1.3853,1.3843,1.3831,1.3835,1.3832,1.3836,1.3853,1.3853,1.3853,1.3854,0,1.3052,1.3076,1.3132,1.3197,1.3243,1.3296,1.335,1.3376,1.3436,1.3477,1.3541,1.3582,1.3663,1.3725,1.379,1.3828,1.385,1.3856,1.3865,1.3854,1.3835,1.3845,1.3798,1.3854,1.3854,1.3854,1.3854,1.3854,1.3068,1.3106,1.317,1.3231,1.3277,1.3326,1.3367,1.3412,1.3466,1.3537,1.3563,1.3628,1.3687,1.3778,1.3816,1.3866,1.3868,1.388,1.3884,1.3886,1.3885,1.3826,1.3878,1.3878,1.3878,1.3878,1.3878,0,1.3104,1.3147,1.3202,1.3277,1.3325,1.3344,1.3404,1.3442,1.3499,1.3554,1.3606,1.3678,1.3738,1.3794,1.3857,1.3886,1.3898,1.3901,1.3899,1.3908,1.3879,1.3866,1.389,1.389,1.389,1.389,1.389,1.389,1.3128,1.3193,1.3224,1.3311,1.3354,1.3418,1.3451,1.3497,1.3541,1.362,1.3671,1.3708,1.3762,1.3829,1.3885,1.39,1.3921,1.3921,1.3939,1.3911,1.3909,1.3908,1.3895,1.3926,1.3926,1.3963,1.3963,1.3964]}]]